TimeAKDT,TemperatureF,Dew PointF,Humidity,Sea Level PressureIn,VisibilityMPH,Wind Direction,Wind SpeedMPH,Gust SpeedMPH,PrecipitationIn,Events,Conditions,WindDirDegrees,DateUTC
12:04 AM,39.2,39.2,100,29.47,8.0,Calm,Calm,-,0.01,Rain,Light Rain,0,2013-10-14 08:04:00
12:15 AM,39.2,39.2,100,29.47,7.0,Calm,Calm,-,0.01,Rain,Light Rain,0,2013-10-14 08:15:00
12:23 AM,39.2,39.2,100,29.46,1.8,Calm,Calm,-,0.01,Rain,Light Rain,0,2013-10-14 08:23:00
12:38 AM,39.2,37.4,93,29.47,3.0,Calm,Calm,-,0.01,Rain,Light Rain,0,2013-10-14 08:38:00
12:53 AM,39.9,39.9,100,29.48,5.0,Calm,Calm,-,0.02,Rain,Light Rain,0,2013-10-14 08:53:00
1:07 AM,39.2,39.2,100,29.48,10.0,Calm,Calm,-,0.00,Rain,Light Rain,0,2013-10-14 09:07:00
1:53 AM,39.9,39.0,97,29.50,10.0,Calm,Calm,-,0.00,Rain,Light Rain,0,2013-10-14 09:53:00
2:44 AM,41.0,39.2,93,29.50,10.0,Calm,Calm,-,0.00,Rain,Light Rain,0,2013-10-14 10:44:00
2:53 AM,41.0,39.0,93,29.52,10.0,Calm,Calm,-,0.00,Rain,Light Rain,0,2013-10-14 10:53:00
3:49 AM,39.2,37.4,93,29.52,10.0,Variable,3.5,-,0.00,Rain,Light Rain,0,2013-10-14 11:49:00
3:53 AM,39.9,37.9,93,29.54,10.0,South,3.5,-,0.00,Rain,Light Rain,180,2013-10-14 11:53:00
4:41 AM,39.2,37.4,93,29.54,4.0,Calm,Calm,-,0.00,Rain,Light Rain,0,2013-10-14 12:41:00
4:53 AM,39.9,37.9,93,29.55,3.0,Calm,Calm,-,0.00,Rain,Light Rain,0,2013-10-14 12:53:00
5:07 AM,39.2,37.4,93,29.54,3.0,SSW,3.5,-,0.01,Rain,Light Rain,200,2013-10-14 13:07:00
5:32 AM,39.2,37.4,93,29.55,7.0,Calm,Calm,-,0.01,Rain,Light Rain,0,2013-10-14 13:32:00
5:43 AM,39.2,37.4,93,29.55,9.0,SSW,3.5,-,0.01,Rain,Light Rain,200,2013-10-14 13:43:00
5:53 AM,39.0,37.9,96,29.56,10.0,Calm,Calm,-,0.01,Rain,Light Rain,0,2013-10-14 13:53:00
6:00 AM,39.2,37.4,93,29.56,10.0,Calm,Calm,-,0.00,Rain,Light Rain,0,2013-10-14 14:00:00
6:14 AM,39.2,37.4,93,29.56,10.0,Calm,Calm,-,0.00,Rain,Light Rain,0,2013-10-14 14:14:00
6:53 AM,37.9,37.0,97,29.58,10.0,Calm,Calm,-,0.00,Rain,Light Rain,0,2013-10-14 14:53:00
7:06 AM,37.4,37.4,100,29.57,10.0,Calm,Calm,-,0.00,Rain,Light Rain,0,2013-10-14 15:06:00
7:53 AM,37.0,36.0,96,29.59,10.0,Calm,Calm,-,0.00,Rain,Light Rain,0,2013-10-14 15:53:00
8:12 AM,37.4,35.6,93,29.59,10.0,Calm,Calm,-,0.00,Rain,Light Rain,0,2013-10-14 16:12:00
8:37 AM,37.4,35.6,93,29.60,10.0,Calm,Calm,-,0.00,Rain,Light Rain,0,2013-10-14 16:37:00
8:53 AM,37.9,36.0,93,29.62,10.0,Calm,Calm,-,0.00,Rain,Light Rain,0,2013-10-14 16:53:00
9:04 AM,37.4,37.4,100,29.61,10.0,Calm,Calm,-,0.00,Rain,Light Rain,0,2013-10-14 17:04:00
9:45 AM,37.4,37.4,100,29.62,10.0,Calm,Calm,-,0.00,Rain,Light Rain,0,2013-10-14 17:45:00
9:53 AM,37.0,36.0,96,29.63,10.0,Calm,Calm,-,0.00,Rain,Light Rain,0,2013-10-14 17:53:00
10:06 AM,37.4,37.4,100,29.63,10.0,Calm,Calm,-,0.00,Rain,Light Rain,0,2013-10-14 18:06:00
10:53 AM,39.0,37.0,93,29.64,10.0,Calm,Calm,-,0.00,Rain,Light Rain,0,2013-10-14 18:53:00
11:53 AM,39.9,37.9,93,29.67,10.0,Variable,5.8,-,0.00,Rain,Light Rain,0,2013-10-14 19:53:00
12:14 PM,39.2,37.4,93,29.66,10.0,Variable,4.6,-,0.00,,Overcast,0,2013-10-14 20:14:00
12:24 PM,39.2,37.4,93,29.65,10.0,Calm,Calm,-,0.00,,Overcast,0,2013-10-14 20:24:00
12:53 PM,41.0,37.9,89,29.68,10.0,Variable,4.6,-,0.00,,Overcast,0,2013-10-14 20:53:00
1:53 PM,39.9,37.9,93,29.70,10.0,SSW,4.6,-,0.00,,Overcast,210,2013-10-14 21:53:00
2:53 PM,41.0,37.0,86,29.71,10.0,South,4.6,-,N/A,,Mostly Cloudy,190,2013-10-14 22:53:00
3:17 PM,39.2,37.4,93,29.70,10.0,Variable,5.8,-,N/A,,Mostly Cloudy,0,2013-10-14 23:17:00
3:41 PM,39.2,37.4,93,29.71,10.0,SSW,5.8,-,N/A,,Mostly Cloudy,210,2013-10-14 23:41:00
3:53 PM,39.9,37.0,89,29.72,10.0,Variable,4.6,-,N/A,,Mostly Cloudy,0,2013-10-14 23:53:00
4:01 PM,39.2,37.4,93,29.71,10.0,Variable,4.6,-,N/A,,Overcast,0,2013-10-15 00:01:00
4:11 PM,41.0,37.4,87,29.71,10.0,Calm,Calm,-,N/A,,Overcast,0,2013-10-15 00:11:00
4:23 PM,41.0,37.4,87,29.71,10.0,South,5.8,-,N/A,,Mostly Cloudy,190,2013-10-15 00:23:00
4:53 PM,41.0,37.9,89,29.72,7.0,Variable,3.5,-,N/A,,Overcast,0,2013-10-15 00:53:00
5:01 PM,41.0,39.2,93,29.71,6.0,Calm,Calm,-,N/A,,Overcast,0,2013-10-15 01:01:00
5:32 PM,41.0,39.2,93,29.71,10.0,Calm,Calm,-,N/A,,Overcast,0,2013-10-15 01:32:00
5:46 PM,41.0,39.2,93,29.71,10.0,Calm,Calm,-,0.00,Rain,Light Rain,0,2013-10-15 01:46:00
5:53 PM,41.0,39.0,93,29.72,10.0,South,3.5,-,0.00,,Overcast,180,2013-10-15 01:53:00
6:13 PM,41.0,39.2,93,29.71,3.0,Calm,Calm,-,0.00,Rain,Light Rain,0,2013-10-15 02:13:00
6:20 PM,39.2,39.2,100,29.71,7.0,Variable,3.5,-,0.00,Rain,Light Rain,0,2013-10-15 02:20:00
6:53 PM,41.0,39.0,93,29.73,10.0,Calm,Calm,-,0.00,Rain,Light Rain,0,2013-10-15 02:53:00
7:06 PM,41.0,37.4,87,29.72,10.0,South,4.6,-,0.00,Rain,Light Rain,190,2013-10-15 03:06:00
7:45 PM,39.2,37.4,93,29.72,10.0,Calm,Calm,-,0.00,Rain,Light Rain,0,2013-10-15 03:45:00
7:53 PM,39.9,37.9,93,29.73,10.0,Calm,Calm,-,0.01,Rain,Light Rain,0,2013-10-15 03:53:00
8:53 PM,39.9,37.9,93,29.74,8.0,Calm,Calm,-,0.00,Rain,Light Rain,0,2013-10-15 04:53:00
9:22 PM,39.2,37.4,93,29.74,9.0,South,5.8,-,0.01,Rain,Light Rain,170,2013-10-15 05:22:00
9:30 PM,39.2,37.4,93,29.74,10.0,Variable,3.5,-,0.01,Rain,Light Rain,0,2013-10-15 05:30:00
9:38 PM,39.2,37.4,93,29.74,10.0,Variable,3.5,-,0.02,Rain,Light Rain,0,2013-10-15 05:38:00
9:53 PM,39.9,37.9,93,29.74,10.0,Calm,Calm,-,0.02,Rain,Light Rain,0,2013-10-15 05:53:00
10:53 PM,39.9,37.9,93,29.74,10.0,Calm,Calm,-,0.00,Rain,Light Rain,0,2013-10-15 06:53:00
11:53 PM,39.9,37.9,93,29.73,10.0,Calm,Calm,-,0.00,Rain,Light Rain,0,2013-10-15 07:53:00